• In Deutschland
  • Länderverzeichnis
  • Für 7 Tage
  • Wassertemperatur
  • Satellitenkarten
  • Wetterkarte
  • Widgets
  • user-avatar
    Anmelden

    Stündliche Wetter Geesthacht

    Heute, 25 Juni, Montag

    Zeit Temperatur Niederschläge Wind Luftdruck Luftfeuchtigkeit
    00:00 +10°C° 0 mm 2 m/S 763 mmHg 96%
    01:00 +10°C° 0 mm 2 m/S 763 mmHg 97%
    02:00 +10°C° 0 mm 2 m/S 764 mmHg 97%
    03:00 +10°C° 0 mm 2 m/S 764 mmHg 98%
    04:00 +10°C° 0 mm 2 m/S 764 mmHg 98%
    05:00 +12°C° 0 mm 2 m/S 764 mmHg 95%
    06:00 +12°C° 0 mm 3 m/S 764 mmHg 92%
    07:00 +14°C° 0 mm 3 m/S 764 mmHg 89%
    08:00 +16°C° 0 mm 3 m/S 764 mmHg 85%
    09:00 +16°C° 0 mm 3 m/S 764 mmHg 81%
    10:00 +17°C° 0 mm 4 m/S 764 mmHg 77%
    11:00 +18°C° 0 mm 4 m/S 764 mmHg 74%
    12:00 +19°C° 0 mm 4 m/S 765 mmHg 71%
    13:00 +20°C° 0 mm 4 m/S 765 mmHg 68%
    14:00 +20°C° 0 mm 4 m/S 765 mmHg 69%
    15:00 +20°C° 0 mm 4 m/S 764 mmHg 70%
    16:00 +19°C° 0 mm 4 m/S 764 mmHg 70%
    17:00 +19°C° 0 mm 4 m/S 764 mmHg 74%
    18:00 +18°C° 0 mm 4 m/S 765 mmHg 77%
    19:00 +17°C° 0 mm 4 m/S 765 mmHg 80%
    20:00 +15°C° 0 mm 4 m/S 765 mmHg 83%
    21:00 +14°C° 0 mm 3 m/S 765 mmHg 87%
    22:00 +13°C° 0 mm 3 m/S 765 mmHg 91%
    23:00 +14°C° 0 mm 2 m/S 766 mmHg 93%

    Morgen, 26 Juni, Dienstag

    Zeit Temperatur Niederschläge Wind Luftdruck Luftfeuchtigkeit
    00:00 +13°C° 0 mm 2 m/S 766 mmHg 95%
    01:00 +13°C° 0 mm 2 m/S 766 mmHg 96%
    02:00 +13°C° 0 mm 2 m/S 766 mmHg 97%
    03:00 +12°C° 0 mm 2 m/S 766 mmHg 97%
    04:00 +12°C° 0 mm 2 m/S 766 mmHg 98%
    05:00 +13°C° 0 mm 2 m/S 766 mmHg 94%
    06:00 +14°C° 0 mm 2 m/S 766 mmHg 90%
    07:00 +16°C° 0 mm 2 m/S 766 mmHg 87%
    08:00 +19°C° 0 mm 1 m/S 766 mmHg 80%
    09:00 +21°C° 0 mm 1 m/S 766 mmHg 73%
    10:00 +23°C° 0 mm 1 m/S 767 mmHg 66%
    11:00 +24°C° 0 mm 1 m/S 767 mmHg 62%
    12:00 +25°C° 0 mm 1 m/S 767 mmHg 57%
    13:00 +27°C° 0 mm 2 m/S 767 mmHg 52%
    14:00 +27°C° 0 mm 2 m/S 767 mmHg 54%
    15:00 +26°C° 0 mm 2 m/S 766 mmHg 56%
    16:00 +26°C° 0 mm 3 m/S 766 mmHg 58%
    17:00 +25°C° 0,1 mm 3 m/S 767 mmHg 63%
    18:00 +24°C° 0,1 mm 2 m/S 767 mmHg 68%
    19:00 +23°C° 0,1 mm 2 m/S 767 mmHg 73%
    20:00 +21°C° 0 mm 2 m/S 767 mmHg 77%
    21:00 +19°C° 0 mm 2 m/S 767 mmHg 82%
    22:00 +17°C° 0 mm 2 m/S 768 mmHg 87%
    23:00 +16°C° 0 mm 2 m/S 768 mmHg 87%

    übermorgen, 27 Juni, Mittwoch

    Zeit Temperatur Niederschläge Wind Luftdruck Luftfeuchtigkeit
    00:00 +16°C° 0 mm 2 m/S 768 mmHg 87%
    01:00 +15°C° 0 mm 1 m/S 768 mmHg 88%
    02:00 +14°C° 0 mm 1 m/S 768 mmHg 88%
    03:00 +14°C° 0 mm 1 m/S 768 mmHg 88%
    04:00 +14°C° 0 mm 1 m/S 768 mmHg 89%
    05:00 +15°C° 0 mm 1 m/S 768 mmHg 83%
    06:00 +18°C° 0 mm 1 m/S 769 mmHg 77%
    07:00 +19°C° 0 mm 1 m/S 769 mmHg 70%
    08:00 +20°C° 0 mm 2 m/S 769 mmHg 64%
    09:00 +21°C° 0 mm 2 m/S 769 mmHg 58%
    10:00 +24°C° 0 mm 3 m/S 769 mmHg 52%
    11:00 +25°C° 0 mm 3 m/S 769 mmHg 51%
    12:00 +26°C° 0 mm 3 m/S 769 mmHg 49%
    13:00 +26°C° 0 mm 4 m/S 769 mmHg 47%
    14:00 +26°C° 0 mm 4 m/S 768 mmHg 47%
    15:00 +26°C° 0 mm 4 m/S 768 mmHg 47%
    16:00 +26°C° 0 mm 4 m/S 768 mmHg 48%
    17:00 +25°C° 0 mm 4 m/S 768 mmHg 52%
    18:00 +23°C° 0 mm 4 m/S 768 mmHg 57%
    19:00 +22°C° 0 mm 3 m/S 768 mmHg 61%
    20:00 +20°C° 0 mm 3 m/S 768 mmHg 69%
    21:00 +18°C° 0 mm 3 m/S 769 mmHg 76%
    22:00 +16°C° 0 mm 3 m/S 769 mmHg 84%
    23:00 +15°C° 0 mm 2 m/S 769 mmHg 87%

    28 Juni, Donnerstag

    Zeit Temperatur Niederschläge Wind Luftdruck Luftfeuchtigkeit
    00:00 +15°C° 0 mm 2 m/S 769 mmHg 90%
    01:00 +14°C° 0 mm 2 m/S 769 mmHg 93%
    02:00 +14°C° 0 mm 2 m/S 769 mmHg 94%
    03:00 +14°C° 0 mm 2 m/S 769 mmHg 95%
    04:00 +14°C° 0 mm 2 m/S 769 mmHg 96%
    05:00 +15°C° 0 mm 2 m/S 769 mmHg 91%
    06:00 +17°C° 0 mm 3 m/S 769 mmHg 85%
    07:00 +18°C° 0 mm 3 m/S 769 mmHg 80%
    08:00 +20°C° 0 mm 3 m/S 768 mmHg 74%
    09:00 +21°C° 0 mm 4 m/S 768 mmHg 68%
    10:00 +23°C° 0 mm 4 m/S 768 mmHg 63%
    11:00 +25°C° 0 mm 4 m/S 768 mmHg 60%
    12:00 +26°C° 0 mm 5 m/S 767 mmHg 57%
    13:00 +27°C° 0 mm 5 m/S 767 mmHg 54%
    14:00 +27°C° 0 mm 5 m/S 767 mmHg 54%
    15:00 +27°C° 0 mm 5 m/S 766 mmHg 54%
    16:00 +27°C° 0 mm 5 m/S 766 mmHg 53%
    17:00 +26°C° 0 mm 5 m/S 766 mmHg 58%
    18:00 +25°C° 0 mm 5 m/S 766 mmHg 63%
    19:00 +23°C° 0 mm 4 m/S 766 mmHg 67%
    20:00 +21°C° 0 mm 4 m/S 766 mmHg 73%
    21:00 +20°C° 0 mm 4 m/S 766 mmHg 78%
    22:00 +18°C° 0 mm 3 m/S 766 mmHg 84%
    23:00 +17°C° 0 mm 3 m/S 766 mmHg 85%

    29 Juni, Freitag

    Zeit Temperatur Niederschläge Wind Luftdruck Luftfeuchtigkeit
    00:00 +17°C° 0 mm 3 m/S 766 mmHg 86%
    01:00 +16°C° 0 mm 3 m/S 766 mmHg 87%
    02:00 +16°C° 0 mm 3 m/S 766 mmHg 88%
    03:00 +16°C° 0 mm 3 m/S 766 mmHg 88%
    04:00 +14°C° 0 mm 3 m/S 765 mmHg 89%
    05:00 +17°C° 0 mm 3 m/S 765 mmHg 83%
    06:00 +19°C° 0 mm 3 m/S 765 mmHg 77%
    07:00 +20°C° 0 mm 3 m/S 765 mmHg 70%
    08:00 +22°C° 0 mm 3 m/S 765 mmHg 64%
    09:00 +25°C° 0 mm 4 m/S 765 mmHg 58%
    10:00 +27°C° 0 mm 4 m/S 765 mmHg 51%
    11:00 +27°C° 0 mm 4 m/S 765 mmHg 49%
    12:00 +28°C° 0 mm 4 m/S 765 mmHg 46%
    13:00 +29°C° 0 mm 4 m/S 764 mmHg 44%
    14:00 +29°C° 0 mm 4 m/S 764 mmHg 44%
    15:00 +29°C° 0 mm 4 m/S 764 mmHg 45%
    16:00 +29°C° 0 mm 4 m/S 763 mmHg 45%
    17:00 +28°C° 0 mm 4 m/S 763 mmHg 50%
    18:00 +27°C° 0 mm 3 m/S 763 mmHg 54%
    19:00 +26°C° 0 mm 3 m/S 763 mmHg 58%
    20:00 +23°C° 0 mm 2 m/S 763 mmHg 64%
    21:00 +20°C° 0 mm 2 m/S 764 mmHg 70%
    22:00 +18°C° 0 mm 2 m/S 764 mmHg 75%
    23:00 +17°C° 0 mm 2 m/S 764 mmHg 77%

    30 Juni, Samstag

    Zeit Temperatur Niederschläge Wind Luftdruck Luftfeuchtigkeit
    00:00 +18°C° 0 mm 1 m/S 764 mmHg 79%
    01:00 +16°C° 0 mm 1 m/S 764 mmHg 81%
    02:00 +16°C° 0 mm 1 m/S 765 mmHg 83%
    03:00 +15°C° 0 mm 2 m/S 765 mmHg 85%
    04:00 +15°C° 0 mm 2 m/S 765 mmHg 87%
    05:00 +17°C° 0 mm 2 m/S 765 mmHg 81%
    06:00 +18°C° 0 mm 2 m/S 765 mmHg 75%
    07:00 +20°C° 0 mm 2 m/S 765 mmHg 69%
    08:00 +22°C° 0 mm 3 m/S 765 mmHg 63%
    09:00 +25°C° 0 mm 3 m/S 765 mmHg 56%
    10:00 +27°C° 0 mm 3 m/S 765 mmHg 50%
    11:00 +28°C° 0 mm 3 m/S 765 mmHg 46%
    12:00 +29°C° 0 mm 4 m/S 765 mmHg 42%
    13:00 +30°C° 0 mm 4 m/S 765 mmHg 39%
    14:00 +30°C° 0 mm 4 m/S 765 mmHg 38%
    15:00 +30°C° 0 mm 4 m/S 765 mmHg 37%
    16:00 +30°C° 0 mm 4 m/S 764 mmHg 37%
    17:00 +29°C° 0 mm 4 m/S 764 mmHg 40%
    18:00 +28°C° 0 mm 4 m/S 764 mmHg 44%
    19:00 +26°C° 0 mm 4 m/S 764 mmHg 47%
    20:00 +23°C° 0 mm 4 m/S 764 mmHg 50%
    21:00 +22°C° 0 mm 4 m/S 764 mmHg 53%
    22:00 +20°C° 0 mm 4 m/S 765 mmHg 56%
    23:00 +19°C° 0 mm 4 m/S 765 mmHg 57%
    Mehr zeigen